Plainview, TX

5:53 AM CDT on October 23, 2017 (GMT -0500)
Hale County

Weather History for KPVW - October, 2012

Change the Weather History Date:

Thursday, October 4, 2012

  Actual Average Record
Temperature  
Mean Temperature 56 °F -  
Max Temperature 62 °F 81 °F 94 °F (1917)
Min Temperature 50 °F 52 °F 36 °F (1961)
Degree Days  
Heating Degree Days 9    
Growing Degree Days 6 (Base 50)    
Moisture  
Dew Point 43 °F    
Average Humidity 65    
Maximum Humidity 94    
Minimum Humidity 45    
Precipitation  
Precipitation 0.00 in - - ()
Sea Level Pressure  
Sea Level Pressure 30.13 in    
Wind  
Wind Speed 12 mph (NE)    
Max Wind Speed 28 mph    
Max Gust Speed 38 mph    
Visibility 10 miles    
Events      
Averages and records for this station are not official NWS values.
T = Trace of Precipitation, MM = Missing Value Source: NWS Daily Summary

Daily Weather History Graph

Daily Weather History Graph

Search for Another Location

Airport or City:

Trip Planner

Search our weather history database for the weather conditions in past years. The results will help you decide how hot, cold, wet, or windy it might be!

Date:

Astronomy

Oct. 04, 2012 Rise Set
Actual Time 7:44 AM CDT 7:26 PM CDT
Civil Twilight 7:18 AM CDT 7:51 PM CDT
Nautical Twilight 6:49 AM CDT 8:20 PM CDT
Astronomical Twilight 6:20 AM CDT 8:49 PM CDT
Moon 10:15 PM CDT (10/4) 11:50 AM CDT (10/4)
Length of Visible Light 12h 32m
Length of Day
11h 42m
Waning Gibbous, 82% of the Moon is Illuminated
Oct 4
Waning Gibbous
Oct 8
Last Quarter
Oct 15
New
Oct 21
First Quarter
Oct 29
Full

Hourly Weather History & Observations

Time (CDT) Temp. Dew Point Humidity Pressure Visibility Wind Dir Wind Speed Gust Speed Precip Events Conditions
12:15 AM 60.8 °F 53.6 °F 77% 29.94 in 10.0 mi SSE 8.1 mph - N/A   Clear
12:35 AM 60.8 °F 53.6 °F 77% 29.94 in 10.0 mi South 8.1 mph - N/A   Clear
12:55 AM 60.8 °F 53.6 °F 77% 29.94 in 10.0 mi SSE 8.1 mph - N/A   Clear
1:15 AM 59.0 °F 53.6 °F 82% 29.94 in 10.0 mi SSE 6.9 mph - N/A   Clear
1:35 AM 59.0 °F 53.6 °F 82% 29.94 in 10.0 mi South 8.1 mph - N/A   Clear
1:55 AM 59.0 °F 53.6 °F 82% 29.94 in 10.0 mi South 6.9 mph - N/A   Clear
2:15 AM 59.0 °F 53.6 °F 82% 29.95 in 10.0 mi South 8.1 mph - N/A   Clear
2:35 AM 59.0 °F 53.6 °F 82% 29.95 in 10.0 mi South 8.1 mph - N/A   Clear
2:55 AM 59.0 °F 53.6 °F 82% 29.95 in 10.0 mi South 6.9 mph - N/A   Clear
3:15 AM 59.0 °F 53.6 °F 82% 29.95 in 10.0 mi South 6.9 mph - N/A   Clear
3:35 AM 57.2 °F 51.8 °F 82% 29.95 in 10.0 mi South 5.8 mph - N/A   Clear
3:55 AM 55.4 °F 53.6 °F 94% 29.95 in 10.0 mi SSW 6.9 mph - N/A   Clear
4:15 AM 55.4 °F 53.6 °F 94% 29.96 in 10.0 mi SSW 4.6 mph - N/A   Clear
4:35 AM 53.6 °F 51.8 °F 94% 29.99 in 10.0 mi West 5.8 mph - N/A   Clear
4:55 AM 53.6 °F 51.8 °F 94% 29.99 in 10.0 mi NW 9.2 mph - N/A   Clear
5:15 AM 55.4 °F 51.8 °F 88% 30.01 in 10.0 mi NNW 19.6 mph 23.0 mph N/A   Clear
5:35 AM 55.4 °F 50.0 °F 82% 30.02 in 7.0 mi North 27.6 mph 34.5 mph N/A   Clear
5:55 AM 55.4 °F 44.6 °F 67% 30.06 in 7.0 mi North 27.6 mph 36.8 mph N/A   Clear
6:15 AM 53.6 °F 42.8 °F 67% 30.07 in 7.0 mi North 25.3 mph 38.0 mph N/A   Clear
6:35 AM 53.6 °F 42.8 °F 67% 30.09 in 10.0 mi North 26.5 mph 35.7 mph N/A   Clear
6:55 AM 51.8 °F 41.0 °F 67% 30.11 in 10.0 mi North 26.5 mph 34.5 mph N/A   Clear
7:15 AM 51.8 °F 41.0 °F 67% 30.12 in 10.0 mi North 24.2 mph 34.5 mph N/A   Clear
7:35 AM 50.0 °F 39.2 °F 66% 30.13 in 10.0 mi North 26.5 mph 38.0 mph N/A   Clear
7:55 AM 50.0 °F 37.4 °F 62% 30.14 in 10.0 mi North 20.7 mph 29.9 mph N/A   Clear
8:15 AM 50.0 °F 39.2 °F 66% 30.15 in 10.0 mi North 23.0 mph 29.9 mph N/A   Clear
8:35 AM 50.0 °F 39.2 °F 66% 30.16 in 10.0 mi North 25.3 mph 32.2 mph N/A   Scattered Clouds
8:55 AM 51.8 °F 41.0 °F 67% 30.18 in 10.0 mi North 23.0 mph 33.4 mph N/A   Overcast
9:15 AM 51.8 °F 39.2 °F 62% 30.18 in 10.0 mi NNE 23.0 mph 29.9 mph N/A   Overcast
9:35 AM 53.6 °F 41.0 °F 62% 30.20 in 10.0 mi North 17.3 mph 26.5 mph N/A   Overcast
9:55 AM 53.6 °F 41.0 °F 62% 30.20 in 10.0 mi NNE 23.0 mph 28.8 mph N/A   Overcast
10:15 AM 53.6 °F 41.0 °F 62% 30.21 in 10.0 mi North 21.9 mph 31.1 mph N/A   Overcast
10:35 AM 53.6 °F 39.2 °F 58% 30.22 in 10.0 mi North 21.9 mph 28.8 mph N/A   Overcast
10:55 AM 53.6 °F 37.4 °F 54% 30.22 in 10.0 mi North 23.0 mph 27.6 mph N/A   Overcast
11:15 AM 53.6 °F 37.4 °F 54% 30.23 in 10.0 mi NNE 21.9 mph 25.3 mph N/A   Overcast
11:35 AM 53.6 °F 37.4 °F 54% 30.24 in 10.0 mi NNE 17.3 mph 27.6 mph N/A   Overcast
11:55 AM 53.6 °F 35.6 °F 51% 30.24 in 10.0 mi NNE 16.1 mph 25.3 mph N/A   Overcast
12:15 PM 55.4 °F 37.4 °F 51% 30.24 in 10.0 mi NNE 19.6 mph 27.6 mph N/A   Overcast
12:35 PM 55.4 °F 35.6 °F 47% 30.25 in 10.0 mi NNE 16.1 mph 25.3 mph N/A   Overcast
12:55 PM 55.4 °F 37.4 °F 51% 30.25 in 10.0 mi NNE 16.1 mph 24.2 mph N/A   Overcast
1:15 PM 57.2 °F 37.4 °F 48% 30.24 in 10.0 mi NNE 15.0 mph 20.7 mph N/A   Overcast
1:35 PM 59.0 °F 37.4 °F 45% 30.24 in 10.0 mi NNE 15.0 mph 26.5 mph N/A   Overcast
1:55 PM 59.0 °F 37.4 °F 45% 30.24 in 10.0 mi North 13.8 mph - N/A   Overcast
2:15 PM 59.0 °F 37.4 °F 45% 30.24 in 10.0 mi North 15.0 mph 19.6 mph N/A   Overcast
2:35 PM 59.0 °F 37.4 °F 45% 30.22 in 10.0 mi NNE 10.4 mph 23.0 mph N/A   Overcast
2:55 PM 60.8 °F 39.2 °F 45% 30.21 in 10.0 mi NE 12.7 mph 18.4 mph N/A   Mostly Cloudy
3:15 PM 60.8 °F 39.2 °F 45% 30.21 in 10.0 mi NNE 10.4 mph 18.4 mph N/A   Scattered Clouds
3:35 PM 60.8 °F 41.0 °F 48% 30.20 in 10.0 mi NNE 9.2 mph 16.1 mph N/A   Scattered Clouds
3:55 PM 60.8 °F 41.0 °F 48% 30.20 in 10.0 mi NNE 9.2 mph - N/A   Clear
4:15 PM 62.6 °F 41.0 °F 45% 30.20 in 10.0 mi ENE 9.2 mph - N/A   Clear
4:35 PM 60.8 °F 41.0 °F 48% 30.20 in 10.0 mi ENE 8.1 mph - N/A   Clear
4:55 PM 62.6 °F 42.8 °F 48% 30.19 in 10.0 mi ENE 6.9 mph - N/A   Clear
5:15 PM 62.6 °F 41.0 °F 45% 30.18 in 10.0 mi NE 6.9 mph - N/A   Clear
5:35 PM 62.6 °F 41.0 °F 45% 30.18 in 10.0 mi East 8.1 mph - N/A   Clear
5:55 PM 60.8 °F 41.0 °F 48% 30.18 in 10.0 mi East 4.6 mph - N/A   Clear
6:15 PM 60.8 °F 41.0 °F 48% 30.18 in 10.0 mi East 6.9 mph - N/A   Clear
6:35 PM 59.0 °F 41.0 °F 51% 30.18 in 10.0 mi ENE 5.8 mph - N/A   Clear
6:55 PM 59.0 °F 42.8 °F 55% 30.18 in 10.0 mi East 6.9 mph - N/A   Clear
7:15 PM 57.2 °F 41.0 °F 55% 30.18 in 10.0 mi East 5.8 mph - N/A   Clear
7:35 PM 55.4 °F 42.8 °F 63% 30.19 in 10.0 mi East 5.8 mph - N/A   Clear
8:15 PM 53.6 °F 42.8 °F 67% 30.19 in 10.0 mi East 5.8 mph - N/A   Clear
8:35 PM 53.6 °F 44.6 °F 72% 30.20 in 10.0 mi East 6.9 mph - N/A   Clear
9:15 PM 51.8 °F 42.8 °F 71% 30.19 in 10.0 mi ESE 5.8 mph - N/A   Clear
9:35 PM 50.0 °F 42.8 °F 76% 30.19 in 10.0 mi East 5.8 mph - N/A   Clear
9:55 PM 50.0 °F 41.0 °F 71% 30.20 in 10.0 mi East 5.8 mph - N/A   Clear
10:15 PM 50.0 °F 42.8 °F 76% 30.20 in 10.0 mi East 5.8 mph - N/A   Clear
10:35 PM 50.0 °F 42.8 °F 76% 30.20 in 10.0 mi East 4.6 mph - N/A   Clear
10:55 PM 50.0 °F 42.8 °F 76% 30.19 in 10.0 mi East 5.8 mph - N/A   Clear
11:15 PM 50.0 °F 42.8 °F 76% 30.18 in 10.0 mi East 5.8 mph - N/A   Clear
11:35 PM 50.0 °F 42.8 °F 76% 30.19 in 10.0 mi East 4.6 mph - N/A   Clear
11:55 PM 50.0 °F 42.8 °F 76% 30.19 in 10.0 mi East 4.6 mph - N/A   Clear